Cadillac, MI

3:25 AM EDT on May 25, 2017 (GMT -0400)
Wexford County

Weather History for KCAD - January, 2013

Change the Weather History Date:

Wednesday, January 2, 2013

  Actual Average Record
Temperature  
Mean Temperature 19 °F -  
Max Temperature 22 °F 25 °F 46 °F (2000)
Min Temperature 16 °F 14 °F -15 °F (2014)
Degree Days  
Heating Degree Days 46    
Moisture  
Dew Point 15 °F    
Average Humidity 82    
Maximum Humidity 89    
Minimum Humidity 75    
Precipitation  
Precipitation 0.00 in - - ()
Sea Level Pressure  
Sea Level Pressure 30.02 in    
Wind  
Wind Speed 8 mph (SW)    
Max Wind Speed 14 mph    
Max Gust Speed 18 mph    
Visibility 8 miles    
Events Snow    
Averages and records for this station are not official NWS values.
T = Trace of Precipitation, MM = Missing Value Source: NWS Daily Summary

Daily Weather History Graph

Daily Weather History Graph

Search for Another Location

Airport or City:

Trip Planner

Search our weather history database for the weather conditions in past years. The results will help you decide how hot, cold, wet, or windy it might be!

Date:

Astronomy

Jan. 02, 2013 Rise Set
Actual Time 8:17 AM EST 5:14 PM EST
Civil Twilight 7:44 AM EST 5:47 PM EST
Nautical Twilight 7:07 AM EST 6:24 PM EST
Astronomical Twilight 6:32 AM EST 6:59 PM EST
Moon 10:59 PM EST (1/2) 10:46 AM EST (1/2)
Length of Visible Light 10h 03m
Length of Day
8h 57m
Waning Gibbous, 75% of the Moon is Illuminated
Jan 2
Waning Gibbous
Jan 4
Last Quarter
Jan 11
New
Jan 18
First Quarter
Jan 26
Full

Hourly Weather History & Observations

Time (EST) Temp. Windchill Dew Point Humidity Pressure Visibility Wind Dir Wind Speed Gust Speed Precip Events Conditions
12:15 AM 16.5 °F 5.1 °F 9.9 °F 75% 29.97 in 10.0 mi West 9.2 mph - N/A Snow Light Snow
12:35 AM 17.4 °F 7.1 °F 10.8 °F 75% 29.97 in 10.0 mi WSW 8.1 mph - N/A Snow Light Snow
12:55 AM 17.6 °F 6.4 °F 10.9 °F 75% 29.96 in 10.0 mi West 9.2 mph - N/A Snow Light Snow
1:15 AM 17.6 °F 7.3 °F 10.9 °F 75% 29.96 in 10.0 mi WSW 8.1 mph - N/A Snow Light Snow
1:35 AM 17.6 °F 5.7 °F 11.1 °F 76% 29.96 in 10.0 mi West 10.4 mph - N/A Snow Light Snow
1:55 AM 17.6 °F 6.4 °F 11.3 °F 76% 29.96 in 10.0 mi West 9.2 mph - N/A Snow Light Snow
2:15 AM 17.6 °F 3.7 °F 11.3 °F 76% 29.96 in 10.0 mi West 13.8 mph 17.3 mph N/A Snow Light Snow
2:35 AM 18.0 °F 6.9 °F 11.8 °F 77% 29.96 in 10.0 mi West 9.2 mph 17.3 mph N/A Snow Light Snow
2:55 AM 18.9 °F 8.0 °F 12.7 °F 77% 29.96 in 10.0 mi West 9.2 mph - N/A Snow Light Snow
3:15 AM 18.9 °F 7.2 °F 12.9 °F 78% 29.97 in 3.0 mi West 10.4 mph - N/A Snow Light Snow
3:35 AM 18.9 °F 7.2 °F 13.1 °F 78% 29.97 in 10.0 mi West 10.4 mph 18.4 mph N/A Snow Light Snow
3:55 AM 18.9 °F 7.2 °F 13.1 °F 78% 29.97 in 10.0 mi West 10.4 mph - N/A   Overcast
4:15 AM 18.9 °F 8.0 °F 13.1 °F 78% 29.97 in 10.0 mi West 9.2 mph - N/A Snow Light Snow
4:35 AM 18.9 °F 8.8 °F 13.1 °F 78% 29.98 in 10.0 mi West 8.1 mph - N/A   Overcast
4:54 AM 18.9 °F 8.0 °F 13.5 °F 79% 29.98 in 10.0 mi West 9.2 mph - N/A Snow Light Snow
5:15 AM 18.9 °F 8.8 °F 13.1 °F 78% 29.98 in 10.0 mi West 8.1 mph 12.7 mph N/A Snow Light Snow
5:35 AM 18.9 °F 9.8 °F 13.3 °F 79% 29.98 in 10.0 mi WSW 6.9 mph - N/A Snow Light Snow
5:55 AM 18.9 °F 9.8 °F 13.6 °F 80% 29.98 in 10.0 mi WSW 6.9 mph - N/A Snow Light Snow
6:15 AM 18.9 °F 8.0 °F 14.0 °F 81% 29.98 in 10.0 mi WSW 9.2 mph - N/A   Overcast
6:34 AM 18.9 °F 8.8 °F 14.0 °F 81% 29.98 in 10.0 mi WSW 8.1 mph - N/A   Overcast
6:55 AM 18.9 °F 10.8 °F 14.0 °F 81% 29.99 in 10.0 mi WSW 5.8 mph - N/A   Overcast
7:15 AM 18.9 °F 10.8 °F 14.4 °F 83% 30.01 in 10.0 mi WSW 5.8 mph - N/A   Overcast
7:34 AM 18.9 °F 10.8 °F 14.5 °F 83% 30.01 in 10.0 mi WSW 5.8 mph - N/A   Overcast
7:55 AM 18.9 °F 9.8 °F 14.9 °F 85% 30.01 in 10.0 mi West 6.9 mph - N/A   Overcast
8:15 AM 18.9 °F 9.8 °F 14.9 °F 85% 30.01 in 10.0 mi WSW 6.9 mph - N/A   Overcast
8:34 AM 18.9 °F 8.8 °F 14.9 °F 85% 30.01 in 10.0 mi West 8.1 mph - N/A   Overcast
8:55 AM 18.9 °F 6.5 °F 14.5 °F 83% 30.02 in 10.0 mi West 11.5 mph - N/A Snow Light Snow
9:15 AM 18.9 °F 7.2 °F 14.4 °F 83% 30.03 in 10.0 mi WSW 10.4 mph - N/A Snow Light Snow
9:35 AM 19.0 °F 10.0 °F 14.5 °F 83% 30.03 in 10.0 mi WSW 6.9 mph - N/A Snow Light Snow
10:15 AM 19.9 °F 11.1 °F 15.3 °F 82% 30.05 in 5.0 mi WSW 6.9 mph - N/A Snow Light Snow
10:35 AM 20.1 °F 11.3 °F 15.4 °F 82% 30.06 in 4.0 mi SW 6.9 mph - N/A Snow Light Snow
10:55 AM 21.2 °F 14.9 °F 16.5 °F 82% 30.06 in 4.0 mi WSW 4.6 mph - N/A Snow Light Snow
11:15 AM 21.2 °F 14.9 °F 16.5 °F 82% 30.06 in 2.5 mi SW 4.6 mph - N/A Snow Light Snow
11:35 AM 21.2 °F 13.6 °F 16.7 °F 83% 30.06 in 2.0 mi SW 5.8 mph - N/A Snow Light Snow
11:55 AM 21.2 °F 12.6 °F 16.7 °F 83% 30.06 in 3.0 mi SW 6.9 mph - N/A Snow Light Snow
12:15 PM 21.2 °F 12.6 °F 16.7 °F 83% 30.05 in 3.0 mi SW 6.9 mph - N/A Snow Light Snow
12:35 PM 21.2 °F 14.9 °F 16.5 °F 82% 30.05 in 4.0 mi SW 4.6 mph - N/A Snow Light Snow
12:55 PM 21.2 °F 14.9 °F 16.5 °F 82% 30.03 in 2.5 mi SW 4.6 mph - N/A Snow Light Snow
1:15 PM 21.2 °F 13.6 °F 15.8 °F 80% 30.03 in 3.0 mi SW 5.8 mph - N/A Snow Light Snow
1:35 PM 21.2 °F 14.9 °F 15.8 °F 80% 30.03 in 2.0 mi SSW 4.6 mph - N/A Snow Light Snow
1:55 PM 21.2 °F 11.7 °F 16.0 °F 80% 30.03 in 2.5 mi SW 8.1 mph - N/A Snow Light Snow
2:15 PM 21.2 °F 13.6 °F 15.8 °F 80% 30.03 in 3.0 mi SW 5.8 mph - N/A Snow Light Snow
2:35 PM 21.6 °F 14.0 °F 15.6 °F 78% 30.03 in 4.0 mi SW 5.8 mph - N/A Snow Light Snow
2:55 PM 21.2 °F 16.4 °F 15.3 °F 78% 30.03 in 7.0 mi WSW 3.5 mph - N/A Snow Light Snow
3:15 PM 21.9 °F - 15.4 °F 76% 30.03 in 7.0 mi Calm Calm - N/A Snow Light Snow
3:35 PM 21.9 °F - 15.8 °F 77% 30.03 in 7.0 mi Calm Calm - N/A Snow Light Snow
3:55 PM 21.9 °F 15.7 °F 16.5 °F 80% 30.03 in 10.0 mi SSW 4.6 mph - N/A Snow Light Snow
4:14 PM 21.9 °F - 16.5 °F 80% 30.04 in 10.0 mi Calm Calm - N/A Snow Light Snow
4:35 PM 21.9 °F 17.2 °F 16.5 °F 80% 30.05 in 10.0 mi South 3.5 mph - N/A Snow Light Snow
4:55 PM 21.9 °F - 16.7 °F 80% 30.05 in 7.0 mi Calm Calm - N/A Snow Light Snow
5:14 PM 21.9 °F 15.7 °F 17.1 °F 82% 30.05 in 7.0 mi South 4.6 mph - N/A Snow Light Snow
5:35 PM 21.9 °F 15.7 °F 17.1 °F 82% 30.04 in 10.0 mi South 4.6 mph - N/A Snow Light Snow
5:55 PM 21.9 °F 10.4 °F 17.2 °F 82% 30.05 in 10.0 mi South 11.5 mph - N/A Snow Light Snow
6:14 PM 21.2 °F 9.5 °F 16.5 °F 82% 30.05 in 10.0 mi SSW 11.5 mph - N/A   Overcast
6:35 PM 21.2 °F 12.6 °F 16.3 °F 82% 30.05 in 10.0 mi South 6.9 mph - N/A Snow Light Snow
6:55 PM 21.2 °F 13.6 °F 16.2 °F 81% 30.06 in 10.0 mi South 5.8 mph - N/A   Overcast
7:14 PM 21.2 °F 13.6 °F 17.4 °F 85% 30.06 in 10.0 mi South 5.8 mph - N/A   Overcast
7:35 PM 21.2 °F 13.6 °F 17.6 °F 86% 30.06 in 10.0 mi South 5.8 mph - N/A   Overcast
7:55 PM 21.2 °F 11.7 °F 17.6 °F 86% 30.05 in 10.0 mi South 8.1 mph - N/A   Overcast
8:15 PM 21.2 °F 12.6 °F 18.1 °F 88% 30.05 in 7.0 mi South 6.9 mph - N/A   Overcast
8:35 PM 21.4 °F 13.8 °F 18.1 °F 87% 30.03 in 10.0 mi South 5.8 mph - N/A   Overcast
8:55 PM 21.7 °F 13.2 °F 18.5 °F 87% 30.03 in 10.0 mi South 6.9 mph - N/A   Overcast
9:15 PM 21.7 °F 14.3 °F 18.7 °F 88% 30.03 in 10.0 mi South 5.8 mph - N/A   Overcast
9:35 PM 21.9 °F 15.7 °F 19.0 °F 89% 30.02 in 10.0 mi South 4.6 mph - N/A   Overcast
9:55 PM 22.1 °F 14.7 °F 19.2 °F 89% 30.01 in 10.0 mi South 5.8 mph - N/A   Overcast
10:15 PM 22.5 °F 14.1 °F 19.4 °F 88% 30.01 in 10.0 mi South 6.9 mph - N/A   Overcast
10:35 PM 22.6 °F 14.3 °F 19.4 °F 87% 30.01 in 10.0 mi South 6.9 mph - N/A   Overcast
10:55 PM 22.6 °F 15.3 °F 19.4 °F 87% 30.01 in 10.0 mi South 5.8 mph - N/A   Overcast
11:15 PM 22.6 °F 14.3 °F 19.4 °F 87% 30.01 in 10.0 mi South 6.9 mph - N/A   Overcast
11:35 PM 22.6 °F 14.3 °F 19.2 °F 87% 30.00 in 10.0 mi South 6.9 mph - N/A Snow Light Snow
11:55 PM 22.8 °F 16.7 °F 19.4 °F 87% 30.00 in 10.0 mi South 4.6 mph - N/A   Overcast